DAL156 KJFK-DGAA

Flight info

Callsign DAL156
Flight time N/A
Altitude 39000
Route DCT SHIPP Y487 KINGG/M084F390 DCT TILED DCT ANVER DCT 3130N06000W 29N050W 26N040W DCT ULTEM/N0478F410 DCT LUMPO UR976 ANITI UR979 ERMIT DCT TUSEK UL433 ACC DCT
Aircraft A359/H-SDE2E3GHIJ1J3J4J5LM1ORWXYZ/LB1D1

Departure

Time N/A
Airport John F. Kennedy International Airport (KJFK)

Arrival

Time 2026-04-29 13:46
Airport Kotoka International Airport (DGAA)
Time Latitude Longitude Altitude Speed Heading
2026-04-29 11:54 11.31680 -12.46453 38947 ft 497 kts 127°
2026-04-29 11:54 11.29704 -12.43561 38947 ft 497 kts 127°
2026-04-29 11:54 11.25753 -12.37776 38946 ft 497 kts 127°
2026-04-29 11:55 11.21758 -12.32013 38944 ft 497 kts 128°
2026-04-29 11:55 11.17709 -12.26371 38943 ft 497 kts 128°
2026-04-29 11:56 11.13629 -12.20695 38937 ft 497 kts 128°
2026-04-29 11:56 11.09561 -12.15003 38935 ft 497 kts 128°
2026-04-29 11:57 11.05495 -12.09302 38933 ft 497 kts 128°
2026-04-29 11:57 11.01439 -12.03616 38935 ft 497 kts 128°
2026-04-29 11:58 10.97373 -11.97920 38931 ft 497 kts 128°
2026-04-29 11:58 10.93332 -11.92262 38927 ft 496 kts 128°
2026-04-29 11:59 10.89272 -11.86582 38929 ft 496 kts 128°
2026-04-29 11:59 10.85211 -11.80903 38928 ft 496 kts 128°
2026-04-29 12:00 10.81151 -11.75228 38923 ft 496 kts 128°
2026-04-29 12:00 10.77090 -11.69555 38926 ft 496 kts 128°
2026-04-29 12:01 10.73032 -11.63891 38924 ft 496 kts 128°
2026-04-29 12:01 10.68964 -11.58215 38925 ft 495 kts 128°
2026-04-29 12:02 10.64890 -11.52558 38920 ft 495 kts 128°
2026-04-29 12:02 10.60722 -11.47044 38921 ft 495 kts 129°
2026-04-29 12:03 10.56494 -11.41525 38916 ft 494 kts 129°
2026-04-29 12:03 10.52278 -11.35985 38915 ft 494 kts 129°
2026-04-29 12:04 10.48084 -11.30452 38913 ft 492 kts 129°
2026-04-29 12:04 10.43933 -11.24969 38915 ft 493 kts 129°
2026-04-29 12:05 10.39746 -11.19443 38911 ft 494 kts 129°
2026-04-29 12:05 10.35544 -11.13901 38904 ft 494 kts 129°
2026-04-29 12:06 10.31347 -11.08368 38907 ft 494 kts 129°
2026-04-29 12:06 10.27150 -11.02837 38907 ft 494 kts 129°
2026-04-29 12:07 10.23245 -10.97100 38907 ft 495 kts 123°
2026-04-29 12:07 10.19604 -10.91159 38900 ft 495 kts 122°
2026-04-29 12:08 10.16025 -10.85231 38901 ft 495 kts 122°
2026-04-29 12:08 10.12423 -10.79273 38902 ft 495 kts 122°
2026-04-29 12:09 10.08818 -10.73327 38904 ft 495 kts 122°
2026-04-29 12:09 10.04935 -10.67561 38905 ft 494 kts 127°
2026-04-29 12:10 10.00818 -10.61972 38905 ft 494 kts 128°
2026-04-29 12:10 9.96729 -10.56361 38907 ft 494 kts 127°
2026-04-29 12:11 9.92719 -10.50754 38904 ft 494 kts 127°
2026-04-29 12:11 9.88694 -10.45090 38909 ft 494 kts 127°
2026-04-29 12:12 9.84666 -10.39427 38907 ft 494 kts 127°
2026-04-29 12:12 9.80639 -10.33769 38910 ft 495 kts 127°
2026-04-29 12:13 9.76612 -10.28114 38910 ft 494 kts 127°
2026-04-29 12:13 9.72612 -10.22502 38909 ft 494 kts 127°
2026-04-29 12:14 9.68586 -10.16858 38909 ft 494 kts 126°
2026-04-29 12:14 9.64551 -10.11201 38910 ft 494 kts 126°
2026-04-29 12:15 9.60512 -10.05543 38910 ft 495 kts 126°
2026-04-29 12:15 9.56502 -9.99933 38911 ft 494 kts 127°
2026-04-29 12:16 9.52453 -9.94297 38912 ft 493 kts 127°
2026-04-29 12:16 9.48415 -9.88678 38911 ft 492 kts 127°
2026-04-29 12:17 9.44385 -9.83067 38913 ft 492 kts 126°
2026-04-29 12:17 9.40377 -9.77486 38920 ft 491 kts 126°
2026-04-29 12:18 9.36360 -9.71896 38927 ft 490 kts 126°
2026-04-29 12:18 9.32359 -9.66330 38925 ft 490 kts 126°
2026-04-29 12:19 9.28348 -9.60754 38931 ft 490 kts 126°
2026-04-29 12:19 9.24338 -9.55181 38938 ft 489 kts 126°
2026-04-29 12:20 9.20326 -9.49608 38944 ft 489 kts 126°
2026-04-29 12:20 9.16319 -9.44045 38949 ft 488 kts 126°
2026-04-29 12:21 9.13008 -9.39449 38950 ft 488 kts 126°
2026-04-29 12:21 9.08359 -9.32999 38957 ft 487 kts 126°
2026-04-29 12:22 9.04367 -9.27463 38959 ft 487 kts 126°
2026-04-29 12:22 9.01127 -9.22789 38960 ft 487 kts 124°
2026-04-29 12:23 8.97309 -9.17113 38960 ft 487 kts 124°
2026-04-29 12:23 8.93487 -9.11450 38964 ft 487 kts 124°
2026-04-29 12:24 8.89648 -9.05805 38963 ft 487 kts 124°
2026-04-29 12:24 8.85810 -9.00180 38964 ft 486 kts 124°
2026-04-29 12:25 8.81972 -8.94558 38959 ft 484 kts 124°
2026-04-29 12:26 8.76261 -8.86192 38958 ft 483 kts 124°
2026-04-29 12:26 8.72445 -8.80606 38960 ft 483 kts 124°
2026-04-29 12:27 8.68629 -8.75022 38961 ft 483 kts 124°
2026-04-29 12:27 8.64810 -8.69437 38962 ft 484 kts 124°
2026-04-29 12:28 8.60980 -8.63837 38958 ft 484 kts 124°
2026-04-29 12:28 8.57146 -8.58234 38961 ft 484 kts 124°
2026-04-29 12:29 8.53316 -8.52638 38958 ft 484 kts 124°
2026-04-29 12:29 8.49499 -8.47065 38960 ft 485 kts 124°
2026-04-29 12:30 8.45656 -8.41456 38955 ft 485 kts 124°
2026-04-29 12:30 8.41819 -8.35858 38955 ft 484 kts 124°
2026-04-29 12:31 8.38001 -8.30256 38951 ft 484 kts 122°
2026-04-29 12:31 8.35006 -8.24233 38954 ft 483 kts 113°
2026-04-29 12:32 8.32439 -8.17968 38953 ft 483 kts 111°
2026-04-29 12:32 8.29932 -8.11658 38950 ft 483 kts 111°
2026-04-29 12:33 8.27415 -8.05354 38950 ft 483 kts 111°
2026-04-29 12:33 8.24889 -7.99070 38955 ft 483 kts 111°
2026-04-29 12:34 8.22354 -7.92780 38952 ft 483 kts 111°
2026-04-29 12:34 8.19830 -7.86523 38951 ft 483 kts 112°
2026-04-29 12:35 8.17294 -7.80240 38951 ft 484 kts 112°
2026-04-29 12:35 8.14755 -7.73949 38952 ft 484 kts 112°
2026-04-29 12:36 8.12209 -7.67645 38948 ft 484 kts 112°
2026-04-29 12:36 8.09666 -7.61349 38952 ft 484 kts 112°
2026-04-29 12:37 8.07121 -7.55054 38951 ft 486 kts 111°
2026-04-29 12:37 8.04598 -7.48814 38949 ft 485 kts 112°
2026-04-29 12:38 8.02023 -7.42452 38950 ft 483 kts 112°
2026-04-29 12:38 7.99500 -7.36219 38950 ft 483 kts 112°
2026-04-29 12:39 7.96960 -7.29949 38949 ft 482 kts 112°
2026-04-29 12:39 7.94422 -7.23686 38948 ft 481 kts 112°
2026-04-29 12:40 7.91890 -7.17440 38950 ft 481 kts 112°
2026-04-29 12:40 7.89358 -7.11199 38948 ft 481 kts 112°
2026-04-29 12:41 7.86826 -7.04960 38951 ft 481 kts 112°
2026-04-29 12:41 7.84304 -6.98749 38951 ft 481 kts 112°
2026-04-29 12:42 7.81763 -6.92493 38950 ft 482 kts 112°
2026-04-29 12:42 7.79222 -6.86241 38948 ft 482 kts 112°
2026-04-29 12:43 7.76675 -6.79977 38951 ft 482 kts 112°
2026-04-29 12:43 7.74128 -6.73716 38951 ft 482 kts 112°
2026-04-29 12:44 7.71596 -6.67494 38947 ft 482 kts 112°
2026-04-29 12:44 7.69029 -6.61193 38949 ft 482 kts 112°
2026-04-29 12:45 7.66491 -6.54964 38950 ft 483 kts 112°
2026-04-29 12:45 7.63939 -6.48704 38948 ft 483 kts 112°
2026-04-29 12:46 7.61387 -6.42442 38951 ft 482 kts 112°
2026-04-29 12:46 7.58832 -6.36180 38950 ft 482 kts 112°
2026-04-29 12:47 7.56291 -6.29957 38951 ft 482 kts 112°
2026-04-29 12:47 7.53738 -6.23708 38953 ft 482 kts 112°
2026-04-29 12:48 7.51187 -6.17462 38953 ft 482 kts 111°
2026-04-29 12:48 7.48632 -6.11209 38952 ft 482 kts 112°
2026-04-29 12:49 7.46073 -6.04950 38950 ft 482 kts 111°
2026-04-29 12:49 7.43531 -5.98737 38953 ft 483 kts 111°
2026-04-29 12:50 7.40971 -5.92482 38953 ft 483 kts 111°
2026-04-29 12:50 7.38409 -5.86223 38948 ft 483 kts 111°
2026-04-29 12:51 7.35845 -5.79965 38950 ft 484 kts 111°
2026-04-29 12:51 7.33272 -5.73692 38948 ft 485 kts 111°
2026-04-29 12:52 7.30692 -5.67399 38950 ft 487 kts 111°
2026-04-29 12:52 7.28100 -5.61082 38951 ft 488 kts 111°
2026-04-29 12:53 7.25518 -5.54792 38954 ft 490 kts 111°
2026-04-29 12:53 7.22904 -5.48425 38951 ft 492 kts 111°
2026-04-29 12:54 7.20288 -5.42055 38953 ft 493 kts 111°
2026-04-29 12:54 7.17669 -5.35683 38950 ft 492 kts 111°
2026-04-29 12:55 7.15061 -5.29341 38950 ft 492 kts 112°
2026-04-29 12:55 7.12445 -5.22978 38951 ft 491 kts 112°
2026-04-29 12:56 7.09835 -5.16635 38948 ft 490 kts 112°
2026-04-29 12:56 7.07228 -5.10302 38950 ft 489 kts 112°
2026-04-29 12:57 7.04623 -5.03979 38949 ft 488 kts 112°
2026-04-29 12:57 7.02015 -4.97651 38950 ft 488 kts 112°
2026-04-29 12:58 6.99432 -4.91387 38949 ft 488 kts 112°
2026-04-29 12:58 6.96828 -4.85074 38953 ft 487 kts 112°
2026-04-29 12:59 6.93745 -4.77601 38947 ft 487 kts 112°
2026-04-29 12:59 6.91143 -4.71298 38947 ft 487 kts 112°
2026-04-29 13:00 6.88557 -4.65038 38947 ft 487 kts 112°
2026-04-29 13:00 6.85956 -4.58742 38941 ft 486 kts 112°
2026-04-29 13:01 6.83368 -4.52482 38939 ft 486 kts 112°
2026-04-29 13:01 6.80787 -4.46243 38938 ft 486 kts 112°
2026-04-29 13:02 6.78180 -4.39940 38943 ft 485 kts 112°
2026-04-29 13:02 6.75601 -4.33706 38946 ft 485 kts 112°
2026-04-29 13:03 6.73007 -4.27443 38950 ft 485 kts 112°
2026-04-29 13:03 6.70396 -4.21141 38950 ft 485 kts 112°
2026-04-29 13:04 6.67821 -4.14923 38949 ft 484 kts 112°
2026-04-29 13:04 6.65228 -4.08668 38949 ft 484 kts 112°
2026-04-29 13:05 6.62625 -4.02395 38948 ft 484 kts 112°
2026-04-29 13:05 6.60028 -3.96134 38951 ft 485 kts 112°
2026-04-29 13:06 6.57437 -3.89891 38950 ft 485 kts 112°
2026-04-29 13:06 6.54853 -3.83669 38948 ft 485 kts 112°
2026-04-29 13:07 6.52255 -3.77415 38950 ft 485 kts 112°
2026-04-29 13:07 6.49655 -3.71158 38950 ft 485 kts 112°
2026-04-29 13:08 6.47053 -3.64898 38949 ft 485 kts 112°
2026-04-29 13:08 6.44443 -3.58623 38951 ft 485 kts 112°
2026-04-29 13:09 6.42274 -3.53411 38949 ft 486 kts 112°
2026-04-29 13:09 6.39663 -3.47137 38944 ft 486 kts 111°
2026-04-29 13:10 6.37050 -3.40861 38939 ft 486 kts 111°
2026-04-29 13:10 6.34440 -3.34595 38935 ft 486 kts 111°
2026-04-29 13:11 6.31826 -3.28321 38927 ft 487 kts 111°
2026-04-29 13:11 6.29223 -3.22075 38925 ft 488 kts 111°
2026-04-29 13:12 6.27117 -3.15629 38919 ft 487 kts 102°
2026-04-29 13:12 6.25643 -3.08937 38912 ft 488 kts 101°
2026-04-29 13:13 6.24266 -3.02234 38908 ft 489 kts 101°
2026-04-29 13:13 6.22894 -2.95575 38907 ft 490 kts 101°
2026-04-29 13:14 6.21494 -2.88864 38900 ft 491 kts 101°
2026-04-29 13:14 6.20083 -2.82149 38904 ft 491 kts 101°
2026-04-29 13:15 6.18672 -2.75437 38902 ft 491 kts 101°
2026-04-29 13:15 6.17262 -2.68726 38902 ft 491 kts 101°
2026-04-29 13:16 6.15852 -2.62018 38900 ft 491 kts 102°
2026-04-29 13:16 6.14438 -2.55297 38903 ft 491 kts 102°
2026-04-29 13:17 6.13033 -2.48623 38900 ft 491 kts 102°
2026-04-29 13:17 6.11618 -2.41909 38899 ft 491 kts 102°
2026-04-29 13:18 6.10203 -2.35198 38898 ft 491 kts 102°
2026-04-29 13:18 6.08784 -2.28472 38901 ft 491 kts 102°
2026-04-29 13:19 6.07366 -2.21756 38905 ft 491 kts 102°
2026-04-29 13:19 6.05951 -2.15055 38904 ft 491 kts 102°
2026-04-29 13:20 6.04544 -2.08398 38905 ft 490 kts 102°
2026-04-29 13:20 6.03124 -2.01686 38909 ft 490 kts 102°
2026-04-29 13:21 6.01951 -1.96141 38907 ft 491 kts 102°
2026-04-29 13:21 6.01241 -1.92788 38732 ft 491 kts 102°
2026-04-29 13:21 6.00537 -1.89466 38497 ft 492 kts 102°
2026-04-29 13:21 5.99829 -1.86124 38125 ft 487 kts 102°
2026-04-29 13:22 5.99121 -1.82784 37849 ft 490 kts 102°
2026-04-29 13:22 5.98410 -1.79428 37587 ft 492 kts 102°
2026-04-29 13:22 5.97695 -1.76059 37318 ft 493 kts 102°
2026-04-29 13:22 5.96982 -1.72699 36896 ft 491 kts 102°
2026-04-29 13:23 5.96272 -1.69351 36265 ft 490 kts 102°
2026-04-29 13:23 5.95561 -1.66005 35582 ft 490 kts 102°
2026-04-29 13:23 5.94850 -1.62654 34876 ft 491 kts 102°
2026-04-29 13:23 5.94137 -1.59300 34132 ft 493 kts 102°
2026-04-29 13:24 5.93419 -1.55916 33255 ft 497 kts 102°
2026-04-29 13:24 5.92696 -1.52513 32407 ft 499 kts 102°
2026-04-29 13:24 5.91969 -1.49093 31543 ft 501 kts 102°
2026-04-29 13:24 5.91241 -1.45664 30668 ft 503 kts 102°
2026-04-29 13:25 5.90516 -1.42255 29739 ft 506 kts 102°
2026-04-29 13:25 5.89048 -1.35355 28201 ft 501 kts 102°
2026-04-29 13:25 5.88322 -1.31950 27530 ft 496 kts 102°
2026-04-29 13:26 5.87604 -1.28578 26874 ft 492 kts 102°
2026-04-29 13:26 5.86890 -1.25228 26221 ft 488 kts 102°
2026-04-29 13:26 5.86183 -1.21911 25568 ft 484 kts 102°
2026-04-29 13:26 5.85480 -1.18611 24915 ft 481 kts 102°
2026-04-29 13:27 5.84783 -1.15340 24265 ft 477 kts 102°
2026-04-29 13:27 5.84089 -1.12089 23629 ft 474 kts 102°
2026-04-29 13:27 5.83401 -1.08864 22912 ft 470 kts 102°
2026-04-29 13:27 5.82718 -1.05665 22250 ft 465 kts 102°
2026-04-29 13:28 5.82045 -1.02512 21615 ft 459 kts 102°
2026-04-29 13:28 5.81380 -0.99398 20985 ft 453 kts 102°
2026-04-29 13:28 5.80723 -0.96328 20360 ft 448 kts 101°
2026-04-29 13:28 5.80079 -0.93315 19737 ft 443 kts 101°
2026-04-29 13:29 5.79435 -0.90304 19109 ft 438 kts 101°
2026-04-29 13:29 5.78799 -0.87329 18482 ft 434 kts 101°
2026-04-29 13:29 5.78169 -0.84388 17823 ft 427 kts 101°
2026-04-29 13:29 5.77564 -0.81565 17180 ft 403 kts 101°
2026-04-29 13:30 5.76978 -0.78825 16567 ft 399 kts 101°
2026-04-29 13:30 5.76397 -0.76109 15961 ft 395 kts 101°
2026-04-29 13:30 5.75823 -0.73423 15356 ft 392 kts 101°
2026-04-29 13:30 5.75254 -0.70762 14752 ft 388 kts 101°
2026-04-29 13:31 5.74690 -0.68126 14149 ft 384 kts 101°
2026-04-29 13:31 5.74130 -0.65511 13529 ft 381 kts 101°
2026-04-29 13:31 5.73577 -0.62924 12886 ft 377 kts 101°
2026-04-29 13:31 5.73030 -0.60364 12283 ft 372 kts 101°
2026-04-29 13:32 5.72494 -0.57856 11703 ft 367 kts 101°
2026-04-29 13:32 5.71963 -0.55379 11343 ft 355 kts 101°
2026-04-29 13:32 5.71454 -0.53009 11226 ft 338 kts 101°
2026-04-29 13:32 5.70975 -0.50787 11135 ft 322 kts 101°
2026-04-29 13:33 5.70514 -0.48642 11039 ft 307 kts 101°
2026-04-29 13:33 5.70074 -0.46592 10901 ft 294 kts 101°
2026-04-29 13:33 5.69652 -0.44621 10772 ft 282 kts 101°
2026-04-29 13:33 5.69249 -0.42737 10652 ft 271 kts 101°
2026-04-29 13:34 5.68860 -0.40924 10499 ft 261 kts 101°
2026-04-29 13:34 5.68481 -0.39155 10188 ft 259 kts 101°
2026-04-29 13:34 5.68105 -0.37398 9880 ft 256 kts 101°
2026-04-29 13:34 5.67728 -0.35639 9562 ft 263 kts 101°
2026-04-29 13:35 5.67339 -0.33822 9236 ft 268 kts 101°
2026-04-29 13:35 5.66945 -0.31988 8934 ft 269 kts 101°
2026-04-29 13:35 5.66550 -0.30151 8632 ft 268 kts 101°
2026-04-29 13:35 5.66155 -0.28317 8316 ft 268 kts 101°
2026-04-29 13:36 5.65766 -0.26502 8015 ft 269 kts 102°
2026-04-29 13:36 5.65372 -0.24665 7702 ft 269 kts 102°
2026-04-29 13:36 5.64976 -0.22825 7388 ft 270 kts 102°
2026-04-29 13:36 5.64581 -0.20983 7077 ft 270 kts 102°
2026-04-29 13:37 5.64205 -0.19136 6753 ft 270 kts 98°
2026-04-29 13:37 5.64222 -0.17252 6477 ft 271 kts 79°
2026-04-29 13:37 5.64947 -0.15517 6152 ft 273 kts 55°
2026-04-29 13:37 5.66386 -0.14280 5836 ft 276 kts 29°
2026-04-29 13:38 5.68126 -0.13513 5502 ft 277 kts 23°
2026-04-29 13:38 5.69920 -0.12806 5193 ft 277 kts 22°
2026-04-29 13:38 5.71711 -0.12089 4897 ft 277 kts 22°
2026-04-29 13:38 5.73496 -0.11366 4594 ft 276 kts 22°
2026-04-29 13:39 5.75274 -0.10642 4289 ft 276 kts 22°
2026-04-29 13:39 5.77054 -0.09923 3953 ft 276 kts 21°
2026-04-29 13:39 5.78923 -0.09548 3730 ft 274 kts 358°
2026-04-29 13:39 5.80706 -0.10068 3541 ft 265 kts 326°
2026-04-29 13:40 5.81935 -0.11312 3311 ft 241 kts 298°
2026-04-29 13:40 5.82429 -0.12833 3135 ft 220 kts 273°
2026-04-29 13:40 5.82284 -0.14283 3097 ft 204 kts 251°
2026-04-29 13:40 5.81645 -0.15530 3076 ft 201 kts 231°
2026-04-29 13:41 5.80623 -0.16443 3025 ft 200 kts 210°
2026-04-29 13:41 5.79302 -0.16922 2972 ft 201 kts 188°
2026-04-29 13:41 5.77928 -0.16878 2921 ft 201 kts 167°
2026-04-29 13:41 5.76630 -0.16370 2825 ft 202 kts 154°
2026-04-29 13:42 5.75392 -0.15703 2766 ft 202 kts 152°
2026-04-29 13:42 5.74268 -0.15087 2712 ft 201 kts 153°
2026-04-29 13:42 5.73058 -0.14433 2638 ft 191 kts 153°
2026-04-29 13:42 5.71929 -0.13829 2573 ft 178 kts 153°
2026-04-29 13:43 5.70841 -0.13260 2455 ft 177 kts 155°
2026-04-29 13:43 5.69696 -0.13018 2296 ft 166 kts 186°
2026-04-29 13:43 5.68621 -0.13325 2096 ft 156 kts 201°
2026-04-29 13:43 5.67631 -0.13745 1772 ft 153 kts 202°
2026-04-29 13:44 5.66674 -0.14158 1507 ft 145 kts 202°
2026-04-29 13:44 5.65756 -0.14548 1218 ft 143 kts 201°
2026-04-29 13:44 5.64848 -0.14930 935 ft 141 kts 202°
2026-04-29 13:44 5.63948 -0.15302 690 ft 138 kts 203°
2026-04-29 13:45 5.63054 -0.15669 512 ft 141 kts 204°
2026-04-29 13:45 5.62150 -0.16050 353 ft 141 kts 206°
2026-04-29 13:45 5.61239 -0.16433 226 ft 142 kts 206°
2026-04-29 13:45 5.60409 -0.16768 215 ft 106 kts 202°
2026-04-29 13:46 5.60010 -0.16930 209 ft 24 kts 201°
2026-04-29 13:46 5.59894 -0.17031 207 ft 22 kts 242°
2026-04-29 13:46 5.59837 -0.17142 208 ft 0 kts 243°
2026-04-29 13:47 5.59835 -0.17160 207 ft 7 kts 268°
2026-04-29 13:47 5.59859 -0.17191 210 ft 3 kts 351°
2026-04-29 13:47 5.59925 -0.17177 209 ft 17 kts 22°
2026-04-29 13:48 5.60043 -0.17127 206 ft 19 kts 22°
2026-04-29 13:48 5.60166 -0.17086 204 ft 15 kts 352°
2026-04-29 13:48 5.60217 -0.17150 208 ft 12 kts 291°
2026-04-29 13:48 5.60225 -0.17169 210 ft 0 kts 292°